Regional Weather Roundup
Issued by NWS

Home | Current Version | Previous Version | Graphics & Text | Print | Product List | Glossary On
Versions: 1 2 3 4 5 6 7 8 9 10 11 12 13 14 15 16 17 18 19 20 21 22 23 24 25 26 27 28 29 30 31 32 33 34 35 36 37 38 39 40 41 42 43 44 45 46 47 48 49 50
000
ASUS45 KABQ 051801
RWRNM
NEW MEXICO REGIONAL WEATHER ROUNDUP
NATIONAL WEATHER SERVICE ALBUQUERQUE NM
1200 PM MDT SUN JUL 05 2015

NOTE: "FAIR" MEANS FEW OR NO CLOUDS BELOW 12,000 FEET AGL WITH NO
       SIGNIFICANT WEATHER OR OBSTRUCTIONS TO VISION.

      THIS PRODUCT IS RELEASED AS TWO VERSIONS.  ONE VERSION NEAR
      THE TOP OF THE HOUR CONTAINING PRELIMINARY DATA FROM ALBUQUERQUE
      AND OTHER STATIONS.  A FINAL VERSION WITH ADDITIONAL DATA IS
      ISSUED ABOUT 10 MINUTES AFTER THE HOUR.

NMZ501-503-504-510>518-051900-
NORTHWEST PLATEAU/NORTHCENTRAL MOUNTAINS

CITY           SKY/WX    TMP DP  RH WIND       PRES   REMARKS
FARMINGTON     MOSUNNY   76  55  48 CALM      30.16S
6HR MIN TEMP:  64; 6HR MAX TEMP:  77;

SANTA FE       MOSUNNY   79  54  41 SW12      30.18F
6HR MIN TEMP:  57; 6HR MAX TEMP:  80;

TAOS           MOSUNNY   77  45  31 W12G17    30.24S
ANGEL FIRE     FAIR      70  49  46 W12G23    30.32S

$$
NMZ402-403-502-505>509-051900-
WESTCENTRAL MOUNTAINS/SOUTHWEST MOUNTAINS

CITY           SKY/WX    TMP DP  RH WIND       PRES   REMARKS
GALLUP         PTSUNNY   79  51  37 W10       30.24S
6HR MIN TEMP:  61; 6HR MAX TEMP:  79;

GRANTS         MOSUNNY   79  50  35 NW13G21   30.24S
SILVER CITY      N/A     72  63  73 W6        30.22S

$$
NMZ407-409-411-412-051900-
SOUTHERN DESERTS

CITY           SKY/WX    TMP DP  RH WIND       PRES   REMARKS
LORDSBURG      CLOUDY    77  61  57 W15G21    30.14S
DEMING         CLOUDY    79  65  62 W10       30.13S
6HR MIN TEMP:  68; 6HR MAX TEMP:  79;

HOLLOMAN AFB   SUNNY     88  57  34 S8        30.05F
ALAMOGORDO     SUNNY     86  57  37 SW6G18    30.08S
T OR C         PTSUNNY   82  58  43 SW8       30.11F
6HR MIN TEMP:  68; 6HR MAX TEMP:  83;


$$
NMZ519>523-051900-
CENTRAL VALLEYS/CENTRAL HIGHLANDS

CITY           SKY/WX    TMP DP  RH WIND       PRES   REMARKS
ALBUQUERQUE    MOSUNNY   83  53  35 CALM      30.14F
6HR MIN TEMP:  65; 6HR MAX TEMP:  83;

DOUBLE EAGLE   PTSUNNY   81  55  41 S10G16    30.18F
MORIARTY ARPT    N/A     80  47  31 W9        30.20S
6HR MIN TEMP:  55; 6HR MAX TEMP:  82;

CLINES CORNERS MOSUNNY   78  53  41 NW16      30.23S
6HR MIN TEMP:  58; 6HR MAX TEMP:  78;

BELEN          FAIR      86  50  28 CALM      30.12F
6HR MIN TEMP:  64; 6HR MAX TEMP:  86;

SOCORRO        NOT AVBL

$$
NMZ524>526-539-540-051900-
SOUTHCENTRAL MOUNTAINS

CITY           SKY/WX    TMP DP  RH WIND       PRES   REMARKS
RUIDOSO        NOT AVBL

$$
NMZ527>531-051900-
NORTHEAST HIGHLANDS/NORTHEAST PLAINS

CITY           SKY/WX    TMP DP  RH WIND       PRES   REMARKS
LAS VEGAS      MOSUNNY   79  54  41 S17       30.19S
6HR MIN TEMP:  55; 6HR MAX TEMP:  81;

RATON          MOSUNNY   80  55  42 S9G17     30.12S
6HR MIN TEMP:  54; 6HR MAX TEMP:  81;

CLAYTON        MOSUNNY   89  55  31 S22G29    30.06S
6HR MIN TEMP:  66; 6HR MAX TEMP:  90;


$$
NMZ532>537-051900-
EASTCENTRAL PLAINS

CITY           SKY/WX    TMP DP  RH WIND       PRES   REMARKS
TUCUMCARI      MOSUNNY   92  56  29 SW16G25   30.01S
6HR MIN TEMP:  69; 6HR MAX TEMP:  92;

CANNON AFB     PTSUNNY   85  60  41 SW9       30.06F
6HR MIN TEMP:  64; 6HR MAX TEMP:  85;

CLOVIS AIRPORT MOSUNNY   84  61  45 S10G17      N/A

$$
NMZ028-029-538-051900-
SOUTHEAST PLAINS

CITY           SKY/WX    TMP DP  RH WIND       PRES   REMARKS
ROSWELL        SUNNY     90  62  39 S13G21    30.01F
6HR MIN TEMP:  66; 6HR MAX TEMP:  90;

ARTESIA        SUNNY     90  64  43 SE12      30.02F
CARLSBAD       SUNNY     91  64  40 E8        30.00F
6HR MIN TEMP:  70; 6HR MAX TEMP:  91;

HOBBS          MOSUNNY   86  59  39 S6        30.06F


$$


USA.gov is the U.S. government's official web portal to all federal, state and local government web resources and services.